Home   Weather   Gerasdorf bei Wien   Past weeks

Flag for Austria Past Weather in Gerasdorf bei Wien, Lower Austria, Austria — Yesterday and Last 2 Weeks

Now
60 °F

Cool.


Feels Like: 60 °F
Forecast: 60 / 67 °F
Wind: 6 mph from West

Location: Wien / Hohe Warte

Current Time: Jul 26, 2017 at 12:54:20 am

Latest Report: Jul 26, 2017 at 12:00 am


Visibility: N/A

Pressure: 29.72 "Hg

Humidity: 69%

Dew Point: 50 °F

Location of Gerasdorf bei WienLocation

Past Weather in Gerasdorf bei Wien — Graph

°F

Gerasdorf bei Wien Temperature Yesterday

Maximum temperature yesterday: 71 °F (at 5:00 pm)
Minimum temperature yesterday: 60 °F (at 6:00 am)
Average temperature yesterday: 65 °F

High & Low Weather Summary for the Past Weeks

 TemperatureHumidityPressure
High94 °F (Jul 20, 4:00 pm)96% (Jul 10, 11:00 pm)30.24 "Hg (Jul 10, 11:00 pm)
Low54 °F (Jul 14, 6:00 am)25% (Jul 20, 5:00 pm)29.64 "Hg (Jul 24, 4:00 pm)
Average71 °F59%29.95 "Hg
* Reported Jul 10 11:00 pm — Jul 25 11:00 pm, Gerasdorf bei Wien. Weather by CustomWeather, © 2017

Note: Actual official high and low records may vary slightly from our data, if they occured in-between our weather recording intervals... More about our weather records

Advertising

Gerasdorf bei Wien Weather History for the Previous 24 Hours

Scroll right to see more
 ConditionsComfort  
Time TempWeatherWind HumidityBarometerVisibility
11:00 pm
Tue, Jul 25
62 °FPassing clouds.8 mph63%29.71 "Hg22 mi
10:00 pm64 °FPassing clouds.7 mph59%29.69 "Hg31 mi
9:00 pm65 °FPassing clouds.6 mph56%29.67 "Hg43 mi
8:00 pm67 °FScattered clouds.7 mph54%29.68 "Hg43 mi
7:00 pm68 °FPassing clouds.8 mph51%29.67 "Hg43 mi
6:00 pm71 °FPassing clouds.8 mph47%29.66 "Hg43 mi
5:00 pm71 °FPassing clouds.7 mph48%29.66 "Hg47 mi
4:00 pm71 °FScattered clouds.9 mph48%29.68 "Hg47 mi
3:00 pm70 °FOvercast.7 mph51%29.69 "Hg43 mi
2:00 pm68 °FOvercast.6 mph54%29.70 "Hg43 mi
1:00 pm69 °FOvercast.6 mph53%29.69 "Hg43 mi
12:00 pm70 °FOvercast.5 mph52%29.69 "Hg43 mi
11:00 am65 °FOvercast.6 mph60%29.70 "Hg40 mi
10:00 am66 °FOvercast.7 mph58%29.68 "Hg40 mi
9:00 am64 °FOvercast.8 mph60%29.69 "Hg40 mi
8:00 am61 °FScattered clouds.8 mph68%29.70 "Hg28 mi
7:00 am60 °FOvercast.8 mph73%29.70 "Hg25 mi
6:00 am60 °FCool.7 mph75%29.69 "HgN/A
5:00 am60 °FCool.8 mph75%29.68 "HgN/A
4:00 am60 °FSprinkles. Overcast.6 mph79%29.69 "HgN/A
3:00 am61 °FCool.7 mph77%29.70 "HgN/A
2:00 am61 °FLight rain. Overcast.7 mph77%29.70 "Hg19 mi
1:00 am61 °FCool.7 mph77%29.71 "HgN/A
12:00 am62 °FCool.9 mph79%29.70 "HgN/A
Weather by CustomWeather, © 2017

See weather overviewHow to use our weather pages